This is the latest recevied weather packets stored in our database for station/object K2CCS. If no packets are shown the sender has not sent any weather packets the latest 10 day(s).
| Time | Temp. | Humidity | Pressure | Rain* | Wind** | Luminosity | Snow |
|---|---|---|---|---|---|---|---|
| 1778024211 | 20° C | 66% | 1010.1 hPa | 0 mm | - | 11 W/m² | - |
| 1778023909 | 20° C | 65% | 1010.2 hPa | 0 mm | - | 13 W/m² | - |
| 1778023607 | 20° C | 64% | 1009.7 hPa | 0 mm | - | 18 W/m² | - |
| 1778023304 | 20° C | 65% | 1009.9 hPa | 0 mm | - | 21 W/m² | - |
| 1778023000 | 20° C | 64% | 1010 hPa | 0 mm | - | 19 W/m² | - |
| 1778022700 | 20° C | 65% | 1009.7 hPa | 0 mm | - | 14 W/m² | - |
| 1778022397 | 20° C | 65% | 1009.9 hPa | 0 mm | - | 4 W/m² | - |
| 1778022093 | 20° C | 66% | 1009.5 hPa | 0 mm | - | 7 W/m² | - |
| 1778021789 | 20° C | 67% | 1009.7 hPa | 0 mm | - | 12 W/m² | - |
| 1778021486 | 20° C | 67% | 1009.9 hPa | 0 mm | - | 17 W/m² | - |
| 1778021183 | 20° C | 66% | 1009.6 hPa | 0 mm | - | 24 W/m² | - |
| 1778020880 | 20.56° C | 64% | 1009.8 hPa | 0 mm | - | 22 W/m² | - |
| 1778020577 | 20.56° C | 63% | 1009.9 hPa | 0 mm | - | 15 W/m² | - |
| 1778020273 | 20° C | 64% | 1010 hPa | 0 mm | - | 16 W/m² | - |
| 1778019970 | 20° C | 65% | 1010 hPa | 0 mm | - | 17 W/m² | - |
| 1778019666 | 20.56° C | 63% | 1009.9 hPa | 0 mm | - | 25 W/m² | - |
| 1778019363 | 20.56° C | 61% | 1009.6 hPa | 0 mm | - | 24 W/m² | - |
| 1778019059 | 20.56° C | 61% | 1009.1 hPa | 0 mm | - | 23 W/m² | - |
| 1778018757 | 20° C | 63% | 1009.2 hPa | 0 mm | - | 41 W/m² | - |
| 1778018455 | 20.56° C | 61% | 1009 hPa | 0 mm | - | 68 W/m² | - |
| 1778018152 | 20.56° C | 60% | 1009.1 hPa | 0 mm | - | 74 W/m² | - |
| 1778017850 | 20.56° C | 61% | 1009 hPa | 0 mm | - | 88 W/m² | - |
| 1778017548 | 20° C | 61% | 1008.6 hPa | 0 mm | - | 69 W/m² | - |
| 1778017244 | 20° C | 63% | 1008.9 hPa | 0 mm | - | 27 W/m² | - |
| 1778016943 | 20° C | 66% | 1009 hPa | 0 mm | - | 43 W/m² | - |
* Rain latest hour (hover to see other rain measurements)
** Current wind speed in m/s (hover to see current wind gust speed)